Year,Month,Day,Hour,Minute,Value (Times are PST for temperature in C)
2016,04,21,00,00,14.50
2016,04,21,00,01,14.50
2016,04,21,00,02,14.50
2016,04,21,00,03,14.50
2016,04,21,00,04,14.50
2016,04,21,00,05,14.50
2016,04,21,00,06,14.50
2016,04,21,00,07,14.50
2016,04,21,00,08,14.50
2016,04,21,00,09,14.40
2016,04,21,00,10,14.40
2016,04,21,00,11,14.40
2016,04,21,00,12,14.40
2016,04,21,00,13,14.40
2016,04,21,00,14,14.40
2016,04,21,00,15,14.40
2016,04,21,00,16,14.40
2016,04,21,00,17,14.30
2016,04,21,00,18,14.30
2016,04,21,00,19,14.30
2016,04,21,00,20,14.30
2016,04,21,00,21,14.30
2016,04,21,00,22,14.30
2016,04,21,00,23,14.30
2016,04,21,00,24,14.30
2016,04,21,00,25,14.30
2016,04,21,00,26,14.30
2016,04,21,00,27,14.30
2016,04,21,00,28,14.30
2016,04,21,00,29,14.30
2016,04,21,00,30,14.30
2016,04,21,00,31,14.30
2016,04,21,00,32,14.30
2016,04,21,00,33,14.30
2016,04,21,00,34,14.30
2016,04,21,00,35,14.30
2016,04,21,00,36,14.20
2016,04,21,00,37,14.20
2016,04,21,00,38,14.20
2016,04,21,00,39,14.20
2016,04,21,00,40,14.20
2016,04,21,00,41,14.20
2016,04,21,00,42,14.10
2016,04,21,00,43,14.10
2016,04,21,00,44,14.10
2016,04,21,00,45,14.00
2016,04,21,00,46,14.00
2016,04,21,00,47,14.00
2016,04,21,00,48,14.00
2016,04,21,00,49,13.90
2016,04,21,00,50,13.90
2016,04,21,00,51,13.90
2016,04,21,00,52,13.90
2016,04,21,00,53,13.80
2016,04,21,00,54,13.80
2016,04,21,00,55,13.80
2016,04,21,00,56,13.70
2016,04,21,00,57,13.70
2016,04,21,00,58,13.70
2016,04,21,00,59,13.70
2016,04,21,01,00,13.70
2016,04,21,01,01,13.70
2016,04,21,01,02,13.60
2016,04,21,01,03,13.60
2016,04,21,01,04,13.60
2016,04,21,01,05,13.50
2016,04,21,01,06,13.50
2016,04,21,01,07,13.50
2016,04,21,01,08,13.60
2016,04,21,01,09,13.50
2016,04,21,01,10,13.50
2016,04,21,01,11,13.50
2016,04,21,01,12,13.50
2016,04,21,01,13,13.50
2016,04,21,01,14,13.50
2016,04,21,01,15,13.50
2016,04,21,01,16,13.40
2016,04,21,01,17,13.40
2016,04,21,01,18,13.40
2016,04,21,01,19,13.40
2016,04,21,01,20,13.40
2016,04,21,01,21,13.40
2016,04,21,01,22,13.40
2016,04,21,01,23,13.40
2016,04,21,01,24,13.40
2016,04,21,01,25,13.40
2016,04,21,01,26,13.40
2016,04,21,01,27,13.40
2016,04,21,01,28,13.40
2016,04,21,01,29,13.40
2016,04,21,01,30,13.40
2016,04,21,01,31,13.40
2016,04,21,01,32,13.40
2016,04,21,01,33,13.40
2016,04,21,01,34,13.40
2016,04,21,01,35,13.30
2016,04,21,01,36,13.30
2016,04,21,01,37,13.30
2016,04,21,01,38,13.30
2016,04,21,01,39,13.30
2016,04,21,01,40,13.30
2016,04,21,01,41,13.20
2016,04,21,01,42,13.20
2016,04,21,01,43,13.20
2016,04,21,01,44,13.20
2016,04,21,01,45,13.10
2016,04,21,01,46,13.10
2016,04,21,01,47,13.10
2016,04,21,01,48,13.10
2016,04,21,01,49,13.10
2016,04,21,01,50,13.00
2016,04,21,01,51,13.00
2016,04,21,01,52,13.00
2016,04,21,01,53,13.00
2016,04,21,01,54,13.00
2016,04,21,01,55,13.00
2016,04,21,01,56,12.90
2016,04,21,01,57,13.00
2016,04,21,01,58,13.00
2016,04,21,01,59,13.00
2016,04,21,02,00,13.00
2016,04,21,02,01,13.00
2016,04,21,02,02,13.00
2016,04,21,02,03,13.00
2016,04,21,02,04,13.10
2016,04,21,02,05,13.10
2016,04,21,02,06,13.10
2016,04,21,02,07,13.10
2016,04,21,02,08,13.10
2016,04,21,02,09,13.10
2016,04,21,02,10,13.10
2016,04,21,02,11,13.10
2016,04,21,02,12,13.20
2016,04,21,02,13,13.20
2016,04,21,02,14,13.20
2016,04,21,02,15,13.20
2016,04,21,02,16,13.20
2016,04,21,02,17,13.20
2016,04,21,02,18,13.20
2016,04,21,02,19,13.20
2016,04,21,02,20,13.20
2016,04,21,02,21,13.20
2016,04,21,02,22,13.20
2016,04,21,02,23,13.20
2016,04,21,02,24,13.20
2016,04,21,02,25,13.20
2016,04,21,02,26,13.20
2016,04,21,02,27,13.20
2016,04,21,02,28,13.20
2016,04,21,02,29,13.20
2016,04,21,02,30,13.20
2016,04,21,02,31,13.20
2016,04,21,02,32,13.20
2016,04,21,02,33,13.30
2016,04,21,02,34,13.30
2016,04,21,02,35,13.30
2016,04,21,02,36,13.30
2016,04,21,02,37,13.30
2016,04,21,02,38,13.30
2016,04,21,02,39,13.30
2016,04,21,02,40,13.30
2016,04,21,02,41,13.30
2016,04,21,02,42,13.30
2016,04,21,02,43,13.30
2016,04,21,02,44,13.40
2016,04,21,02,45,13.40
2016,04,21,02,46,13.40
2016,04,21,02,47,13.40
2016,04,21,02,48,13.40
2016,04,21,02,49,13.40
2016,04,21,02,50,13.40
2016,04,21,02,51,13.50
2016,04,21,02,52,13.50
2016,04,21,02,53,13.50
2016,04,21,02,54,13.50
2016,04,21,02,55,13.60
2016,04,21,02,56,13.60
2016,04,21,02,57,13.60
2016,04,21,02,58,13.60
2016,04,21,02,59,13.60
2016,04,21,03,00,13.70
2016,04,21,03,01,13.70
2016,04,21,03,02,13.70
2016,04,21,03,03,13.70
2016,04,21,03,04,13.70
2016,04,21,03,05,13.70
2016,04,21,03,06,13.60
2016,04,21,03,07,13.60
2016,04,21,03,08,13.60
2016,04,21,03,09,13.60
2016,04,21,03,10,13.50
2016,04,21,03,11,13.50
2016,04,21,03,12,13.50
2016,04,21,03,13,13.50
2016,04,21,03,14,13.50
2016,04,21,03,15,13.50
2016,04,21,03,16,13.50
2016,04,21,03,17,13.50
2016,04,21,03,18,13.40
2016,04,21,03,19,13.40
2016,04,21,03,20,13.40
2016,04,21,03,21,13.30
2016,04,21,03,22,13.30
2016,04,21,03,23,13.30
2016,04,21,03,24,13.30
2016,04,21,03,25,13.30
2016,04,21,03,26,13.20
2016,04,21,03,27,13.20
2016,04,21,03,28,13.20
2016,04,21,03,29,13.20
2016,04,21,03,30,13.20
2016,04,21,03,31,13.20
2016,04,21,03,32,13.20
2016,04,21,03,33,13.10
2016,04,21,03,34,13.10
2016,04,21,03,35,13.10
2016,04,21,03,36,13.10
2016,04,21,03,37,13.10
2016,04,21,03,38,13.10
2016,04,21,03,39,13.10
2016,04,21,03,40,13.00
2016,04,21,03,41,13.00
2016,04,21,03,42,13.00
2016,04,21,03,43,13.00
2016,04,21,03,44,13.00
2016,04,21,03,45,12.90
2016,04,21,03,46,12.90
2016,04,21,03,47,12.90
2016,04,21,03,48,12.90
2016,04,21,03,49,12.90
2016,04,21,03,50,12.90
2016,04,21,03,51,12.90
2016,04,21,03,52,12.80
2016,04,21,03,53,12.80
2016,04,21,03,54,12.80
2016,04,21,03,55,12.80
2016,04,21,03,56,12.80
2016,04,21,03,57,12.80
2016,04,21,03,58,12.70
2016,04,21,03,59,12.70
2016,04,21,04,00,12.70
2016,04,21,04,01,12.80
2016,04,21,04,02,12.80
2016,04,21,04,03,12.80
2016,04,21,04,04,12.80
2016,04,21,04,05,12.80
2016,04,21,04,06,12.80
2016,04,21,04,07,12.80
2016,04,21,04,08,12.80
2016,04,21,04,09,12.80
2016,04,21,04,10,12.80
2016,04,21,04,11,12.80
2016,04,21,04,12,12.80
2016,04,21,04,13,12.80
2016,04,21,04,14,12.80
2016,04,21,04,15,12.90
2016,04,21,04,16,12.90
2016,04,21,04,17,12.90
2016,04,21,04,18,12.90
2016,04,21,04,19,12.90
2016,04,21,04,20,12.90
2016,04,21,04,21,12.90
2016,04,21,04,22,12.90
2016,04,21,04,23,12.90
2016,04,21,04,24,12.80
2016,04,21,04,25,12.80
2016,04,21,04,26,12.80
2016,04,21,04,27,12.80
2016,04,21,04,28,12.80
2016,04,21,04,29,12.80
2016,04,21,04,30,12.80
2016,04,21,04,31,12.80
2016,04,21,04,32,12.80
2016,04,21,04,33,12.80
2016,04,21,04,34,12.80
2016,04,21,04,35,12.80
2016,04,21,04,36,12.80
2016,04,21,04,37,12.80
2016,04,21,04,38,12.80
2016,04,21,04,39,12.80
2016,04,21,04,40,12.80
2016,04,21,04,41,12.80
2016,04,21,04,42,12.80
2016,04,21,04,43,12.80
2016,04,21,04,44,12.80
2016,04,21,04,45,12.80
2016,04,21,04,46,12.80
2016,04,21,04,47,12.80
2016,04,21,04,48,12.80
2016,04,21,04,49,12.80
2016,04,21,04,50,12.80
2016,04,21,04,51,12.80
2016,04,21,04,52,12.80
2016,04,21,04,53,12.80
2016,04,21,04,54,12.80
2016,04,21,04,55,12.80
2016,04,21,04,56,12.80
2016,04,21,04,57,12.80
2016,04,21,04,58,12.80
2016,04,21,04,59,12.80
2016,04,21,05,00,12.80
2016,04,21,05,01,12.80
2016,04,21,05,02,12.80
2016,04,21,05,03,12.80
2016,04,21,05,04,12.80
2016,04,21,05,05,12.80
2016,04,21,05,06,12.80
2016,04,21,05,07,12.70
2016,04,21,05,08,12.70
2016,04,21,05,09,12.70
2016,04,21,05,10,12.70
2016,04,21,05,11,12.70
2016,04,21,05,12,12.70
2016,04,21,05,13,12.70
2016,04,21,05,14,12.70
2016,04,21,05,15,12.70
2016,04,21,05,16,12.70
2016,04,21,05,17,12.70
2016,04,21,05,18,12.70
2016,04,21,05,19,12.70
2016,04,21,05,20,12.70
2016,04,21,05,21,12.70
2016,04,21,05,22,12.70
2016,04,21,05,23,12.70
2016,04,21,05,24,12.70
2016,04,21,05,25,12.70
2016,04,21,05,26,12.70
2016,04,21,05,27,12.60
2016,04,21,05,28,12.60
2016,04,21,05,29,12.60
2016,04,21,05,30,12.60
2016,04,21,05,31,12.60
2016,04,21,05,32,12.60
2016,04,21,05,33,12.50
2016,04,21,05,34,12.50
2016,04,21,05,35,12.50
2016,04,21,05,36,12.40
2016,04,21,05,37,12.40
2016,04,21,05,38,12.40
2016,04,21,05,39,12.40
2016,04,21,05,40,12.40
2016,04,21,05,41,12.40
2016,04,21,05,42,12.40
2016,04,21,05,43,12.40
2016,04,21,05,44,12.30
2016,04,21,05,45,12.30
2016,04,21,05,46,12.30
2016,04,21,05,47,12.30
2016,04,21,05,48,12.30
2016,04,21,05,49,12.30
2016,04,21,05,50,12.30
2016,04,21,05,51,12.30
2016,04,21,05,52,12.30
2016,04,21,05,53,12.30
2016,04,21,05,54,12.30
2016,04,21,05,55,12.30
2016,04,21,05,56,12.30
2016,04,21,05,57,12.30
2016,04,21,05,58,12.30
2016,04,21,05,59,12.30
2016,04,21,06,00,12.30
2016,04,21,06,01,12.30
2016,04,21,06,02,12.30
2016,04,21,06,03,12.30
2016,04,21,06,04,12.30
2016,04,21,06,05,12.30
2016,04,21,06,06,12.30
2016,04,21,06,07,12.30
2016,04,21,06,08,12.30
2016,04,21,06,09,12.30
2016,04,21,06,10,12.30
2016,04,21,06,11,12.30
2016,04,21,06,12,12.30
2016,04,21,06,13,12.30
2016,04,21,06,14,12.30
2016,04,21,06,15,12.30
2016,04,21,06,16,12.30
2016,04,21,06,17,12.30
2016,04,21,06,18,12.30
2016,04,21,06,19,12.30
2016,04,21,06,20,12.30
2016,04,21,06,21,12.30
2016,04,21,06,22,12.30
2016,04,21,06,23,12.30
2016,04,21,06,24,12.30
2016,04,21,06,25,12.30
2016,04,21,06,26,12.30
2016,04,21,06,27,12.30
2016,04,21,06,28,12.30
2016,04,21,06,29,12.30
2016,04,21,06,30,12.30
2016,04,21,06,31,12.30
2016,04,21,06,32,12.30
2016,04,21,06,33,12.30
2016,04,21,06,34,12.30
2016,04,21,06,35,12.30
2016,04,21,06,36,12.20
2016,04,21,06,37,12.20
2016,04,21,06,38,12.20
2016,04,21,06,39,12.20
2016,04,21,06,40,12.20
2016,04,21,06,41,12.20
2016,04,21,06,42,12.20
2016,04,21,06,43,12.20
2016,04,21,06,44,12.20
2016,04,21,06,45,12.20
2016,04,21,06,46,12.30
2016,04,21,06,47,12.30
2016,04,21,06,48,12.30
2016,04,21,06,49,12.30
2016,04,21,06,50,12.30
2016,04,21,06,51,12.30
2016,04,21,06,52,12.30
2016,04,21,06,53,12.30
2016,04,21,06,54,12.30
2016,04,21,06,55,12.40
2016,04,21,06,56,12.40
2016,04,21,06,57,12.40
2016,04,21,06,58,12.40
2016,04,21,06,59,12.40
2016,04,21,07,00,12.30
2016,04,21,07,01,12.30
2016,04,21,07,02,12.30
2016,04,21,07,03,12.30
2016,04,21,07,04,12.30
2016,04,21,07,05,12.30
2016,04,21,07,06,12.30
2016,04,21,07,07,12.30
2016,04,21,07,08,12.30
2016,04,21,07,09,12.30
2016,04,21,07,10,12.30
2016,04,21,07,11,12.30
2016,04,21,07,12,12.20
2016,04,21,07,13,12.20
2016,04,21,07,14,12.20
2016,04,21,07,15,12.20
2016,04,21,07,16,12.20
2016,04,21,07,17,12.20
2016,04,21,07,18,12.10
2016,04,21,07,19,12.10
2016,04,21,07,20,12.10
2016,04,21,07,21,12.10
2016,04,21,07,22,12.10
2016,04,21,07,23,12.10
2016,04,21,07,24,12.10
2016,04,21,07,25,12.10
2016,04,21,07,26,12.10
2016,04,21,07,27,12.10
2016,04,21,07,28,12.10
2016,04,21,07,29,12.10
2016,04,21,07,30,12.10
2016,04,21,07,31,12.10
2016,04,21,07,32,12.10
2016,04,21,07,33,12.10
2016,04,21,07,34,12.20
2016,04,21,07,35,12.20
2016,04,21,07,36,12.20
2016,04,21,07,37,12.20
2016,04,21,07,38,12.20
2016,04,21,07,39,12.20
2016,04,21,07,40,12.20
2016,04,21,07,41,12.30
2016,04,21,07,42,12.30
2016,04,21,07,43,12.30
2016,04,21,07,44,12.30
2016,04,21,07,45,12.30
2016,04,21,07,46,12.30
2016,04,21,07,47,12.30
2016,04,21,07,48,12.30
2016,04,21,07,49,12.30
2016,04,21,07,50,12.30
2016,04,21,07,51,12.30
2016,04,21,07,52,12.30
2016,04,21,07,53,12.30
2016,04,21,07,54,12.30
2016,04,21,07,55,12.20
2016,04,21,07,56,12.20
2016,04,21,07,57,12.20
2016,04,21,07,58,12.20
2016,04,21,07,59,12.30
2016,04,21,08,00,12.30
2016,04,21,08,01,12.30
2016,04,21,08,02,12.30
2016,04,21,08,03,12.30
2016,04,21,08,04,12.30
2016,04,21,08,05,12.30
2016,04,21,08,06,12.30
2016,04,21,08,07,12.30
2016,04,21,08,08,12.40
2016,04,21,08,09,12.40
2016,04,21,08,10,12.40
2016,04,21,08,11,12.50
2016,04,21,08,12,12.50
2016,04,21,08,13,12.60
2016,04,21,08,14,12.60
2016,04,21,08,15,12.60
2016,04,21,08,16,12.70
2016,04,21,08,17,12.70
2016,04,21,08,18,12.70
2016,04,21,08,19,12.80
2016,04,21,08,20,12.80
2016,04,21,08,21,12.80
2016,04,21,08,22,12.90
2016,04,21,08,23,12.90
2016,04,21,08,24,12.90
2016,04,21,08,25,12.90
2016,04,21,08,26,12.90
2016,04,21,08,27,12.90
2016,04,21,08,28,12.90
2016,04,21,08,29,12.90
2016,04,21,08,30,12.90
2016,04,21,08,31,13.00
2016,04,21,08,32,13.00
2016,04,21,08,33,13.00
2016,04,21,08,34,13.00
2016,04,21,08,35,13.00
2016,04,21,08,36,13.00
2016,04,21,08,37,12.90
2016,04,21,08,38,12.90
2016,04,21,08,39,12.90
2016,04,21,08,40,12.90
2016,04,21,08,41,12.90
2016,04,21,08,42,12.90
2016,04,21,08,43,12.90
2016,04,21,08,44,12.90
2016,04,21,08,45,12.90
2016,04,21,08,46,12.90
2016,04,21,08,47,12.90
2016,04,21,08,48,12.90
2016,04,21,08,49,12.90
2016,04,21,08,50,12.90
2016,04,21,08,51,12.90
2016,04,21,08,52,12.90
2016,04,21,08,53,12.90
2016,04,21,08,54,12.90
2016,04,21,08,55,12.90
2016,04,21,08,56,12.90
2016,04,21,08,57,12.90
2016,04,21,08,58,12.90
2016,04,21,08,59,12.90
2016,04,21,09,00,12.90
2016,04,21,09,01,12.90
2016,04,21,09,02,12.90
2016,04,21,09,03,12.90
2016,04,21,09,04,13.00
2016,04,21,09,05,13.00
2016,04,21,09,06,13.00
2016,04,21,09,07,13.00
2016,04,21,09,08,13.10
2016,04,21,09,09,13.10
2016,04,21,09,10,13.10
2016,04,21,09,11,13.10
2016,04,21,09,12,13.10
2016,04,21,09,13,13.10
2016,04,21,09,14,13.20
2016,04,21,09,15,13.20
2016,04,21,09,16,13.30
2016,04,21,09,17,13.30
2016,04,21,09,18,13.30
2016,04,21,09,19,13.30
2016,04,21,09,20,13.40
2016,04,21,09,21,13.40
2016,04,21,09,22,13.40
2016,04,21,09,23,13.40
2016,04,21,09,24,13.40
2016,04,21,09,25,13.40
2016,04,21,09,26,13.40
2016,04,21,09,27,13.40
2016,04,21,09,28,13.50
2016,04,21,09,29,13.50
2016,04,21,09,30,13.50
2016,04,21,09,31,13.60
2016,04,21,09,32,13.60
2016,04,21,09,33,13.60
2016,04,21,09,34,13.70
2016,04,21,09,35,13.70
2016,04,21,09,36,13.70
2016,04,21,09,37,13.70
2016,04,21,09,38,13.70
2016,04,21,09,39,13.70
2016,04,21,09,40,13.70
2016,04,21,09,41,13.60
2016,04,21,09,42,13.50
2016,04,21,09,43,13.40
2016,04,21,09,44,13.30
2016,04,21,09,45,13.30
2016,04,21,09,46,13.20
2016,04,21,09,47,13.20
2016,04,21,09,48,13.20
2016,04,21,09,49,13.20
2016,04,21,09,50,13.20
2016,04,21,09,51,13.20
2016,04,21,09,52,13.10
2016,04,21,09,53,13.10
2016,04,21,09,54,13.10
2016,04,21,09,55,13.10
2016,04,21,09,56,13.10
2016,04,21,09,57,13.10
2016,04,21,09,58,13.10
2016,04,21,09,59,13.20
2016,04,21,10,00,13.20
2016,04,21,10,01,13.20
2016,04,21,10,02,13.20
2016,04,21,10,03,13.30
2016,04,21,10,04,13.30
2016,04,21,10,05,13.30
2016,04,21,10,06,13.30
2016,04,21,10,07,13.30
2016,04,21,10,08,13.30
2016,04,21,10,09,13.30
2016,04,21,10,10,13.40
2016,04,21,10,11,13.40
2016,04,21,10,12,13.40
2016,04,21,10,13,13.40
2016,04,21,10,14,13.40
2016,04,21,10,15,13.40
2016,04,21,10,16,13.40
2016,04,21,10,17,13.40
2016,04,21,10,18,13.40
2016,04,21,10,19,13.50
2016,04,21,10,20,13.50
2016,04,21,10,21,13.50
2016,04,21,10,22,13.50
2016,04,21,10,23,13.50
2016,04,21,10,24,13.50
2016,04,21,10,25,13.60
2016,04,21,10,26,13.60
2016,04,21,10,27,13.60
2016,04,21,10,28,13.60
2016,04,21,10,29,13.70
2016,04,21,10,30,13.70
2016,04,21,10,31,13.70
2016,04,21,10,32,13.70
2016,04,21,10,33,13.70
2016,04,21,10,34,13.70
2016,04,21,10,35,13.70
2016,04,21,10,36,13.70
2016,04,21,10,37,13.70
2016,04,21,10,38,13.70
2016,04,21,10,39,13.70
2016,04,21,10,40,13.70
2016,04,21,10,41,13.80
2016,04,21,10,42,13.80
2016,04,21,10,43,13.80
2016,04,21,10,44,13.80
2016,04,21,10,45,13.70
2016,04,21,10,46,13.60
2016,04,21,10,47,13.50
2016,04,21,10,48,13.50
2016,04,21,10,49,13.40
2016,04,21,10,50,13.30
2016,04,21,10,51,13.10
2016,04,21,10,52,13.00
2016,04,21,10,53,12.90
2016,04,21,10,54,12.80
2016,04,21,10,55,12.80
2016,04,21,10,56,12.70
2016,04,21,10,57,12.70
2016,04,21,10,58,12.60
2016,04,21,10,59,12.60
2016,04,21,11,00,12.60
2016,04,21,11,01,12.60
2016,04,21,11,02,12.60
2016,04,21,11,03,12.60
2016,04,21,11,04,12.50
2016,04,21,11,05,12.50
2016,04,21,11,06,12.50
2016,04,21,11,07,12.50
2016,04,21,11,08,12.50
2016,04,21,11,09,12.50
2016,04,21,11,10,12.50
2016,04,21,11,11,12.50
2016,04,21,11,12,12.50
2016,04,21,11,13,12.60
2016,04,21,11,14,12.70
2016,04,21,11,15,12.70
2016,04,21,11,16,12.80
2016,04,21,11,17,12.80
2016,04,21,11,18,12.70
2016,04,21,11,19,12.70
2016,04,21,11,20,12.70
2016,04,21,11,21,12.70
2016,04,21,11,22,12.70
2016,04,21,11,23,12.70
2016,04,21,11,24,12.70
2016,04,21,11,25,12.70
2016,04,21,11,26,12.70
2016,04,21,11,27,12.70
2016,04,21,11,28,12.60
2016,04,21,11,29,12.60
2016,04,21,11,30,12.50
2016,04,21,11,31,12.50
2016,04,21,11,32,12.40
2016,04,21,11,33,12.40
2016,04,21,11,34,12.40
2016,04,21,11,35,12.40
2016,04,21,11,36,12.40
2016,04,21,11,37,12.40
2016,04,21,11,38,12.40
2016,04,21,11,39,12.40
2016,04,21,11,40,12.30
2016,04,21,11,41,12.30
2016,04,21,11,42,12.30
2016,04,21,11,43,12.30
2016,04,21,11,44,12.30
2016,04,21,11,45,12.30
2016,04,21,11,46,12.30
2016,04,21,11,47,12.40
2016,04,21,11,48,12.40
2016,04,21,11,49,12.40
2016,04,21,11,50,12.40
2016,04,21,11,51,12.50
2016,04,21,11,52,12.50
2016,04,21,11,53,12.50
2016,04,21,11,54,12.50
2016,04,21,11,55,12.50
2016,04,21,11,56,12.40
2016,04,21,11,57,12.40
2016,04,21,11,58,12.30
2016,04,21,11,59,12.30
2016,04,21,12,00,12.30
2016,04,21,12,01,12.30
2016,04,21,12,02,12.30
2016,04,21,12,03,12.30
2016,04,21,12,04,12.30
2016,04,21,12,05,12.30
2016,04,21,12,06,12.30
2016,04,21,12,07,12.30
2016,04,21,12,08,12.40
2016,04,21,12,09,12.40
2016,04,21,12,10,12.50
2016,04,21,12,11,12.50
2016,04,21,12,12,12.50
2016,04,21,12,13,12.50
2016,04,21,12,14,12.50
2016,04,21,12,15,12.40
2016,04,21,12,16,12.40
2016,04,21,12,17,12.30
2016,04,21,12,18,12.30
2016,04,21,12,19,12.30
2016,04,21,12,20,12.30
2016,04,21,12,21,12.30
2016,04,21,12,22,12.40
2016,04,21,12,23,12.30
2016,04,21,12,24,12.40
2016,04,21,12,25,12.40
2016,04,21,12,26,12.50
2016,04,21,12,27,12.50
2016,04,21,12,28,12.60
2016,04,21,12,29,12.70
2016,04,21,12,30,12.70
2016,04,21,12,31,12.70
2016,04,21,12,32,12.80
2016,04,21,12,33,12.80
2016,04,21,12,34,12.80
2016,04,21,12,35,12.80
2016,04,21,12,36,12.70
2016,04,21,12,37,12.70
2016,04,21,12,38,12.60
2016,04,21,12,39,12.60
2016,04,21,12,40,12.60
2016,04,21,12,41,12.70
2016,04,21,12,42,12.70
2016,04,21,12,43,12.70
2016,04,21,12,44,12.70
2016,04,21,12,45,12.70
2016,04,21,12,46,12.70
2016,04,21,12,47,12.70
2016,04,21,12,48,12.70
2016,04,21,12,49,12.70
2016,04,21,12,50,12.70
2016,04,21,12,51,12.80
2016,04,21,12,52,12.80
2016,04,21,12,53,12.90
2016,04,21,12,54,13.00
2016,04,21,12,55,13.00
2016,04,21,12,56,13.10
2016,04,21,12,57,13.20
2016,04,21,12,58,13.30
2016,04,21,12,59,13.30
2016,04,21,13,00,13.30
2016,04,21,13,01,13.30
2016,04,21,13,02,13.20
2016,04,21,13,03,13.20
2016,04,21,13,04,13.20
2016,04,21,13,05,13.20
2016,04,21,13,06,13.10
2016,04,21,13,07,13.10
2016,04,21,13,08,13.00
2016,04,21,13,09,13.00
2016,04,21,13,10,13.00
2016,04,21,13,11,12.90
2016,04,21,13,12,12.90
2016,04,21,13,13,12.90
2016,04,21,13,14,12.90
2016,04,21,13,15,12.80
2016,04,21,13,16,12.80
2016,04,21,13,17,12.80
2016,04,21,13,18,12.80
2016,04,21,13,19,12.80
2016,04,21,13,20,12.80
2016,04,21,13,21,12.80
2016,04,21,13,22,12.90
2016,04,21,13,23,12.90
2016,04,21,13,24,13.00
2016,04,21,13,25,13.00
2016,04,21,13,26,13.10
2016,04,21,13,27,13.10
2016,04,21,13,28,13.10
2016,04,21,13,29,13.20
2016,04,21,13,30,13.20
2016,04,21,13,31,13.20
2016,04,21,13,32,13.30
2016,04,21,13,33,13.40
2016,04,21,13,34,13.50
2016,04,21,13,35,13.60
2016,04,21,13,36,13.70
2016,04,21,13,37,13.80
2016,04,21,13,38,13.90
2016,04,21,13,39,14.00
2016,04,21,13,40,14.10
2016,04,21,13,41,14.10
2016,04,21,13,42,14.20
2016,04,21,13,43,14.30
2016,04,21,13,44,14.30
2016,04,21,13,45,14.40
2016,04,21,13,46,14.50
2016,04,21,13,47,14.60
2016,04,21,13,48,14.70
2016,04,21,13,49,14.80
2016,04,21,13,50,14.90
2016,04,21,13,51,15.00
2016,04,21,13,52,15.00
2016,04,21,13,53,15.10
2016,04,21,13,54,15.20
2016,04,21,13,55,15.20
2016,04,21,13,56,15.30
2016,04,21,13,57,15.30
2016,04,21,13,58,15.30
2016,04,21,13,59,15.30
2016,04,21,14,00,15.40
2016,04,21,14,01,15.40
2016,04,21,14,02,15.50
2016,04,21,14,03,15.50
2016,04,21,14,04,15.60
2016,04,21,14,05,15.70
2016,04,21,14,06,15.70
2016,04,21,14,07,15.70
2016,04,21,14,08,15.70
2016,04,21,14,09,15.70
2016,04,21,14,10,15.70
2016,04,21,14,11,15.60
2016,04,21,14,12,15.60
2016,04,21,14,13,15.40
2016,04,21,14,14,15.30
2016,04,21,14,15,15.20
2016,04,21,14,16,15.00
2016,04,21,14,17,14.80
2016,04,21,14,18,14.60
2016,04,21,14,19,14.40
2016,04,21,14,20,14.10
2016,04,21,14,21,13.90
2016,04,21,14,22,13.60
2016,04,21,14,23,13.50
2016,04,21,14,24,13.40
2016,04,21,14,25,13.20
2016,04,21,14,26,13.10
2016,04,21,14,27,13.10
2016,04,21,14,28,13.00
2016,04,21,14,29,12.90
2016,04,21,14,30,12.90
2016,04,21,14,31,12.90
2016,04,21,14,32,12.90
2016,04,21,14,33,12.90
2016,04,21,14,34,12.90
2016,04,21,14,35,13.10
2016,04,21,14,36,13.30
2016,04,21,14,37,13.40
2016,04,21,14,38,13.60
2016,04,21,14,39,13.70
2016,04,21,14,40,13.90
2016,04,21,14,41,14.00
2016,04,21,14,42,14.20
2016,04,21,14,43,14.30
2016,04,21,14,44,14.50
2016,04,21,14,45,14.60
2016,04,21,14,46,14.60
2016,04,21,14,47,14.70
2016,04,21,14,48,14.70
2016,04,21,14,49,14.70
2016,04,21,14,50,14.70
2016,04,21,14,51,14.70
2016,04,21,14,52,14.70
2016,04,21,14,53,14.70
2016,04,21,14,54,14.60
2016,04,21,14,55,14.50
2016,04,21,14,56,14.40
2016,04,21,14,57,14.30
2016,04,21,14,58,14.20
2016,04,21,14,59,14.10
2016,04,21,15,00,13.90
2016,04,21,15,01,13.90
2016,04,21,15,02,13.80
2016,04,21,15,03,13.80
2016,04,21,15,04,13.80
2016,04,21,15,05,13.80
2016,04,21,15,06,13.80
2016,04,21,15,07,13.70
2016,04,21,15,08,13.60
2016,04,21,15,09,13.50
2016,04,21,15,10,13.40
2016,04,21,15,11,13.30
2016,04,21,15,12,13.30
2016,04,21,15,13,13.30
2016,04,21,15,14,13.30
2016,04,21,15,15,13.40
2016,04,21,15,16,13.40
2016,04,21,15,17,13.40
2016,04,21,15,18,13.40
2016,04,21,15,19,13.50
2016,04,21,15,20,13.50
2016,04,21,15,21,13.60
2016,04,21,15,22,13.60
2016,04,21,15,23,13.60
2016,04,21,15,24,13.70
2016,04,21,15,25,13.70
2016,04,21,15,26,13.70
2016,04,21,15,27,13.70
2016,04,21,15,28,13.70
2016,04,21,15,29,13.70
2016,04,21,15,30,13.70
2016,04,21,15,31,13.70
2016,04,21,15,32,13.60
2016,04,21,15,33,13.50
2016,04,21,15,34,13.40
2016,04,21,15,35,13.30
2016,04,21,15,36,13.30
2016,04,21,15,37,13.30
2016,04,21,15,38,13.30
2016,04,21,15,39,13.30
2016,04,21,15,40,13.40
2016,04,21,15,41,13.60
2016,04,21,15,42,13.70
2016,04,21,15,43,13.90
2016,04,21,15,44,14.00
2016,04,21,15,45,14.20
2016,04,21,15,46,14.40
2016,04,21,15,47,14.70
2016,04,21,15,48,14.90
2016,04,21,15,49,15.10
2016,04,21,15,50,15.20
2016,04,21,15,51,15.40
2016,04,21,15,52,15.50
2016,04,21,15,53,15.60
2016,04,21,15,54,15.70
2016,04,21,15,55,15.80
2016,04,21,15,56,15.90
2016,04,21,15,57,15.90
2016,04,21,15,58,15.90
2016,04,21,15,59,15.90
2016,04,21,16,00,16.00
2016,04,21,16,01,16.00
2016,04,21,16,02,16.10
2016,04,21,16,03,16.20
2016,04,21,16,04,16.20
2016,04,21,16,05,16.20
2016,04,21,16,06,16.20
2016,04,21,16,07,16.30
2016,04,21,16,08,16.30
2016,04,21,16,09,16.40
2016,04,21,16,10,16.40
2016,04,21,16,11,16.50
2016,04,21,16,12,16.60
2016,04,21,16,13,16.60
2016,04,21,16,14,16.70
2016,04,21,16,15,16.70
2016,04,21,16,16,16.80
2016,04,21,16,17,16.80
2016,04,21,16,18,16.90
2016,04,21,16,19,16.90
2016,04,21,16,20,16.90
2016,04,21,16,21,16.90
2016,04,21,16,22,16.90
2016,04,21,16,23,17.00
2016,04,21,16,24,17.00
2016,04,21,16,25,17.10
2016,04,21,16,26,17.10
2016,04,21,16,27,17.20
2016,04,21,16,28,17.20
2016,04,21,16,29,17.30
2016,04,21,16,30,17.30
2016,04,21,16,31,17.40
2016,04,21,16,32,17.50
2016,04,21,16,33,17.60
2016,04,21,16,34,17.70
2016,04,21,16,35,17.70
2016,04,21,16,36,17.70
2016,04,21,16,37,17.60
2016,04,21,16,38,17.50
2016,04,21,16,39,17.40
2016,04,21,16,40,17.40
2016,04,21,16,41,17.50
2016,04,21,16,42,17.50
2016,04,21,16,43,17.70
2016,04,21,16,44,17.80
2016,04,21,16,45,17.80
2016,04,21,16,46,17.90
2016,04,21,16,47,18.00
2016,04,21,16,48,18.10
2016,04,21,16,49,18.20
2016,04,21,16,50,18.30
2016,04,21,16,51,18.40
2016,04,21,16,52,18.40
2016,04,21,16,53,18.50
2016,04,21,16,54,18.60
2016,04,21,16,55,18.60
2016,04,21,16,56,18.70
2016,04,21,16,57,18.70
2016,04,21,16,58,18.80
2016,04,21,16,59,18.90
2016,04,21,17,00,19.00
2016,04,21,17,01,19.00
2016,04,21,17,02,19.10
2016,04,21,17,03,19.10
2016,04,21,17,04,19.20
2016,04,21,17,05,19.20
2016,04,21,17,06,19.20
2016,04,21,17,07,19.30
2016,04,21,17,08,19.30
2016,04,21,17,09,19.30
2016,04,21,17,10,19.30
2016,04,21,17,11,19.30
2016,04,21,17,12,19.30
2016,04,21,17,13,19.30
2016,04,21,17,14,19.40
2016,04,21,17,15,19.40
2016,04,21,17,16,19.40
2016,04,21,17,17,19.40
2016,04,21,17,18,19.30
2016,04,21,17,19,19.30